Regional Weather Roundup
Issued by NWS

Home | Current Version | Previous Version | Graphics & Text | Print | Product List | Glossary On
Versions: 1 2 3 4 5 6 7 8 9 10 11 12 13 14 15 16 17 18 19 20 21 22 23 24 25 26 27 28 29 30 31 32 33 34 35 36 37 38 39 40 41 42 43 44 45 46 47 48 49 50
134
ASUS43 KFSD 231802
RWRSD

WEATHER ROUNDUP FOR SOUTH DAKOTA
NATIONAL WEATHER SERVICE SIOUX FALLS SD
100 PM CDT WED AUG 23 2017

NOTE: "FAIR" INDICATES FEW OR NO CLOUDS BELOW 12,000 FEET WITH NO
SIGNIFICANT WEATHER AND/OR OBSTRUCTIONS TO VISIBILITY.


SDZ001>005-009-010-012>017-231900-
NORTHWEST AND NORTH CENTRAL SOUTH DAKOTA

CITY           SKY/WX    TMP DP  RH WIND       PRES   REMARKS
BUFFALO          N/A     82  51  34 E6        29.97F
FAITH            N/A     79  56  45 SE5       30.01F
MOBRIDGE       SUNNY     80  58  46 SE10G20   29.98F
$$

SDZ012>016-024>037-041>051-057-063-072>074-231900-
SOUTHWEST AND SOUTH CENTRAL SOUTH DAKOTA

CITY           SKY/WX    TMP DP  RH WIND       PRES   REMARKS
RAPID CTY ARPT SUNNY     82  52  35 N6        30.03F
PIERRE         SUNNY     78  56  46 VRB6      29.98F
CUSTER         SUNNY     81  39  22 S10       30.17F
ELLSWORTH AFB  SUNNY     81  52  36 N3        30.03
PHILIP         SUNNY     85  55  35 MISG      29.98F
SPEARFISH      LGT RAIN  81  52  36 E8        30.08F
WINNER         FAIR      83  59  44 SW16G22   30.02F
$$

SDZ004>011-016>023-039-040-231900-
NORTHEAST SOUTH DAKOTA

CITY           SKY/WX    TMP DP  RH WIND       PRES   REMARKS
ABERDEEN       NOT AVBL
WATERTOWN      NOT AVBL
BROOKINGS      MOSUNNY   74  53  48 SW8       30.10F
SISSETON         N/A     75  54  47 VRB6      30.06F
$$

SDZ017-020-022-023-036>040-048>070-231900-
SOUTHEAST SOUTH DAKOTA

CITY           SKY/WX    TMP DP  RH WIND       PRES   REMARKS
SIOUX FALLS    MOSUNNY   78  57  48 S8        30.10F
HURON          SUNNY     78  57  48 S17       30.03F
CHAMBERLAIN    MOSUNNY   81  60  50 SE12      30.01F
YANKTON        SUNNY     77  58  51 S10       30.09F
$$

ABBREVIATIONS USED IN REMARKS
   TC - TEMPERATURE IN CELSIUS
  WCI - WIND CHILL INDEX
   HX - HEAT INDEX
  VSB - VISIBILITY





USA.gov is the U.S. government's official web portal to all federal, state and local government web resources and services.